Regional Weather Roundup
Issued by NWS

Home | Current Version | Previous Version | Graphics & Text | Print | Product List | Glossary On
Versions: 1 2 3 4 5 6 7 8 9 10 11 12 13 14 15 16 17 18 19 20 21 22 23 24 25 26 27 28 29 30 31 32 33 34 35 36 37 38 39 40 41 42 43 44 45 46 47 48 49 50
325
ASUS43 KTOP 270808
RWRKS

WEATHER ROUNDUP FOR KANSAS
NATIONAL WEATHER SERVICE GOODLAND KS
200 AM CST MON FEB 27 2017

NOTE:  "FAIR" INDICATES FEW OR NO CLOUDS BELOW 12,000 FEET WITH NO
SIGNIFICANT WEATHER AND/OR OBSTRUCTIONS TO VISIBILITY.

KSZ001>006-013>018-027>032-041>047-270900-
NORTHWEST KANSAS

CITY           SKY/WX    TMP DP  RH WIND       PRES   REMARKS
GOODLAND       CLEAR     22   9  57 S14       29.83F WCI   9
HAYS           CLEAR     25   9  50 NE3       29.93S
HILL CITY      CLEAR     18   8  65 SE3       29.93R
RUSSELL        CLEAR     28  15  58 SE12      29.92S WCI  18
$$

KSZ061>065-074>080-084>089-270900-
SOUTHWEST KANSAS

CITY           SKY/WX    TMP DP  RH WIND       PRES   REMARKS
DODGE CITY     CLEAR     25  19  78 SE9       29.90S
ELKHART          N/A     26  12  55 SE13        N/A  WCI  15
GARDEN CITY    CLEAR     26  17  68 E7        29.88S
GREAT BEND     CLEAR     29  21  72 SE6       29.94S
LIBERAL        CLEAR     30  18  59 SE9       29.86F
PRATT          PTCLDY    31  20  64 E7        29.93S
$$

KSZ066>073-081>083-090>101-270900-
SOUTHEAST KANSAS

CITY           SKY/WX    TMP DP  RH WIND       PRES   REMARKS
CHANUTE        CLEAR     25  25 100 E3        30.01S FOG
COFFEYVILLE    CLEAR     30  28  92 NE5       30.01S
HUTCHINSON     CLEAR     33  25  72 E8        29.95F
MEDICINE LODGE   N/A     36  26  67 E9        29.93R
NEWTON         CLEAR     31  25  78 SE8       29.98R
PARSONS        CLEAR     34  31  88 E5        30.01S
WICHITA INTL   PTCLDY    35  27  72 E7        29.96F
WICHITA JABRA  CLEAR     31  26  82 E5        29.96F
WICHITA MCCONL PTCLDY    37  27  68 E9        29.95F
WINFIELD       CLEAR     37  30  75 E5        29.97S
$$

KSZ007>012-019>026-033>040-048>060-102>105-270900-
NORTHEAST KANSAS

CITY           SKY/WX    TMP DP  RH WIND       PRES   REMARKS
CONCORDIA      CLEAR     24  13  62 E5        29.96F
EMPORIA        PTCLDY    28  26  92 CALM      29.99F
LAWRENCE       CLEAR     24  24 100 CALM      30.03S FOG
MANHATTAN      CLEAR     25  20  81 CALM      30.00F
MARYSVILLE     CLEAR     30  21  69 CALM      29.99S
OLATHE IND     FOG       27  26  96 CALM      30.02S VSB 1/4
OLATHE EXE     FOG       32  32 100 CALM      30.02S VSB 1
SALINA         CLEAR     26  19  74 SE3       29.98R
TOPEKA BILLARD FOG       27  26  96 CALM      30.02S VSB 1/2
TOPEKA FORBES  CLEAR     26  24  92 N3        30.01S
$$




USA.gov is the U.S. government's official web portal to all federal, state and local government web resources and services.